TimeEDT,TemperatureF,Dew PointF,Humidity,Sea Level PressureIn,VisibilityMPH,Wind Direction,Wind SpeedMPH,Gust SpeedMPH,PrecipitationIn,Events,Conditions,WindDirDegrees,DateUTC
12:54 AM,54.0,48.0,80,29.92,7.0,NE,6.9,-,N/A,,Overcast,40,2013-04-10 04:54:00
1:54 AM,53.1,46.9,80,29.90,6.0,East,5.8,-,N/A,,Haze,90,2013-04-10 05:54:00
2:54 AM,52.0,46.0,80,29.89,8.0,East,8.1,-,0.00,,Overcast,90,2013-04-10 06:54:00
3:54 AM,51.1,46.0,83,29.87,8.0,East,9.2,-,0.02,,Overcast,90,2013-04-10 07:54:00
4:21 AM,51.8,46.4,82,29.87,7.0,East,6.9,-,0.00,,Overcast,100,2013-04-10 08:21:00
4:54 AM,51.1,46.0,83,29.87,7.0,East,4.6,-,0.00,,Overcast,100,2013-04-10 08:54:00
5:54 AM,52.0,46.0,80,29.85,7.0,East,4.6,-,N/A,,Overcast,90,2013-04-10 09:54:00
6:54 AM,51.1,46.0,83,29.85,7.0,NNE,9.2,-,N/A,,Overcast,30,2013-04-10 10:54:00
7:54 AM,50.0,45.0,83,29.86,6.0,NE,4.6,-,N/A,,Haze,50,2013-04-10 11:54:00
8:54 AM,50.0,45.0,83,29.88,6.0,ENE,8.1,-,N/A,,Haze,70,2013-04-10 12:54:00
9:20 AM,50.0,44.6,82,29.86,6.0,East,4.6,16.1,N/A,Thunderstorm,Unknown,80,2013-04-10 13:20:00
9:45 AM,50.0,44.6,82,29.85,5.0,NE,5.8,-,0.00,Rain-Thunderstorm,Light Rain,50,2013-04-10 13:45:00
9:54 AM,50.0,45.0,83,29.87,5.0,NE,5.8,-,0.00,,Haze,40,2013-04-10 13:54:00
10:23 AM,46.4,44.6,93,29.91,3.0,NNW,16.1,27.6,0.00,Rain,Light Rain,340,2013-04-10 14:23:00
10:29 AM,46.4,42.8,87,29.91,1.8,North,17.3,25.3,0.00,Rain,Light Rain,10,2013-04-10 14:29:00
10:47 AM,44.6,42.8,93,29.90,2.0,NNE,13.8,-,0.01,Rain-Thunderstorm,Light Rain,30,2013-04-10 14:47:00
10:54 AM,45.0,42.1,90,29.91,2.5,NNE,15.0,-,0.01,Rain-Thunderstorm,Light Rain,30,2013-04-10 14:54:00
11:01 AM,44.6,42.8,93,29.91,5.0,NNE,13.8,20.7,0.00,Thunderstorm,Overcast,30,2013-04-10 15:01:00
11:12 AM,44.6,41.0,87,29.91,6.0,ENE,8.1,19.6,N/A,Rain,Light Rain,60,2013-04-10 15:12:00
11:24 AM,42.8,41.0,93,29.89,2.5,East,12.7,-,0.00,Rain,Light Rain,80,2013-04-10 15:24:00
11:32 AM,42.8,41.0,93,29.88,2.5,East,11.5,-,0.00,Rain-Thunderstorm,Light Rain,100,2013-04-10 15:32:00
11:54 AM,44.1,41.0,89,29.88,3.0,East,12.7,-,0.01,Rain-Thunderstorm,Light Rain,100,2013-04-10 15:54:00
12:14 PM,44.6,42.8,93,29.88,10.0,SE,10.4,-,0.00,,Overcast,130,2013-04-10 16:14:00
12:38 PM,44.6,42.8,93,29.90,1.8,SSE,5.8,-,0.00,Rain,Light Rain,150,2013-04-10 16:38:00
12:49 PM,46.4,42.8,87,29.86,2.5,SE,9.2,-,0.01,Rain,Light Rain,140,2013-04-10 16:49:00
12:54 PM,46.0,44.1,93,29.86,4.0,SE,10.4,-,0.01,Rain,Light Rain,130,2013-04-10 16:54:00
1:02 PM,46.4,44.6,93,29.85,7.0,SE,9.2,-,0.00,,Overcast,130,2013-04-10 17:02:00
1:54 PM,48.2,46.4,93,29.86,10.0,Calm,Calm,-,N/A,,Overcast,0,2013-04-10 17:54:00
2:20 PM,48.2,46.4,93,29.88,6.0,NNW,15.0,-,N/A,,Overcast,340,2013-04-10 18:20:00
2:54 PM,46.4,44.6,93,29.90,8.0,NNE,8.1,-,N/A,,Overcast,20,2013-04-10 18:54:00
3:25 PM,46.4,44.6,93,29.91,2.0,North,9.2,-,0.00,Rain,Light Rain,360,2013-04-10 19:25:00
3:54 PM,46.0,43.0,89,29.90,2.0,NNE,10.4,-,0.00,Rain,Light Rain,30,2013-04-10 19:54:00
4:16 PM,44.6,42.8,93,29.85,2.5,NE,12.7,-,0.00,Rain,Light Rain,40,2013-04-10 20:16:00
4:20 PM,44.6,42.8,93,29.87,2.5,NNE,12.7,-,0.00,Rain,Light Rain,30,2013-04-10 20:20:00
4:54 PM,45.0,43.0,93,29.90,5.0,ENE,8.1,-,0.01,,Overcast,60,2013-04-10 20:54:00
5:17 PM,44.6,42.8,93,29.91,7.0,ENE,4.6,-,N/A,Thunderstorm,Overcast,60,2013-04-10 21:17:00
5:37 PM,46.4,42.8,87,29.91,7.0,East,6.9,-,N/A,,Overcast,90,2013-04-10 21:37:00
5:54 PM,46.0,43.0,89,29.90,8.0,ENE,8.1,-,N/A,,Overcast,70,2013-04-10 21:54:00
6:54 PM,45.0,42.1,90,29.96,7.0,Variable,4.6,-,N/A,,Overcast,0,2013-04-10 22:54:00
7:54 PM,44.1,41.0,89,29.88,7.0,ENE,9.2,-,0.00,,Overcast,60,2013-04-10 23:54:00
8:54 PM,43.0,39.9,89,29.89,10.0,East,11.5,19.6,0.00,,Overcast,80,2013-04-11 00:54:00
9:54 PM,42.1,39.9,92,29.89,7.0,East,11.5,19.6,N/A,,Overcast,90,2013-04-11 01:54:00
10:15 PM,42.8,39.2,87,29.84,6.0,ENE,12.7,20.7,N/A,,Overcast,70,2013-04-11 02:15:00
10:54 PM,42.1,39.9,92,29.85,7.0,ENE,10.4,18.4,N/A,,Overcast,70,2013-04-11 02:54:00
11:54 PM,42.1,39.9,92,29.83,5.0,East,17.3,24.2,0.00,Rain,Light Rain,90,2013-04-11 03:54:00